BEIDOU IGSO-6 (C13)

Last updated on Dec. 11, 2019, 4:29 a.m. UTC

1 41434U 16021A   19344.91904042 -.00000153  00000-0  00000+0 0  9995
2 41434  56.7738  62.5480 0038456 202.9599 237.3493  1.00256112 13622
UTC
Height (km)
Latitude
Longitude
Inclination
Orbital Period
UTC large
Height (km)
Speed (km/s)
/
Latitude / Longitude
Inclination (degrees)
Orbital Period (minutes)
Azimuth
Elevation
Range (km)
Doppler Factor
iOS Compass Heading
iOS Angle

Next 30 passes for location: Hong Kong

Rise time Rise Azimuth (degrees) Set time Set Azimuth (degrees) Duration Max altitude (degrees)

No matching passes for this satellites